Regional Weather Roundup
Issued by NWS

Home | Current Version | Previous Version | Text Only | Print | Product List | Glossary Off
Versions: 1 2 3 4 5 6 7 8 9 10 11 12 13 14 15 16 17 18 19 20 21 22 23 24 25 26 27 28 29 30 31 32 33 34 35 36 37 38 39 40 41 42 43 44 45 46 47 48 49 50

272
ASUS44 KLIX 242201
RWRLA
LOUISIANA WEATHER ROUNDUP
NATIONAL WEATHER SERVICE NEW ORLEANS LA
500 PM CDT FRI OCT 24 2014

NOTE: "FAIR" INDICATES FEW OR NO CLOUDS BELOW 12,000 FEET WITH NO
      SIGNIFICANT WEATHER AND/OR OBSTRUCTIONS TO VISIBILITY.
      SKY/WX - SKY CONDITION AND SIGNIFICANT WEATHER.
      TMP - AIR TEMPERATURE.    DP   - DEWPOINT TEMPERATURE.
      RH  - RELATIVE HUMIDITY.  PRES - PRESSURE.
      HX  - HEAT INDEX.         WCI  - WIND CHILL INDEX.

*  THESE STATIONS ARE NOT NWS OR FAA STATIONS AND ARE NOT UNDER
   NWS QUALITY CONTROL.

LAZ040-048-061>063-065-066-069-242300-
SOUTHEAST LOUISIANA

CITY           SKY/WX    TMP DP  RH WIND       PRES   REMARKS
N.O. AUDUBON   NOT AVBL
N.O. INTL ARPT MOSUNNY   75  45  34 N6        30.04F
N.O. LAKEFRONT SUNNY     73  52  47 W10       30.04F
N.O. DOWNTOWN* FAIR      75  45  33 N6        30.05R
SLIDELL        SUNNY     77  44  30 N7        30.03S
BATON ROUGE    SUNNY     76  41  28 VRB5      30.07R
BOOTHVILLE     SUNNY     73  48  41 NE7       30.04R
BELLE CHASSE   MOSUNNY   75  44  33 VRB5      30.04S
BOGALUSA*        N/A     77  40  26 N6        30.06R
NEW ROADS*     FAIR      73  50  44 NW9       30.09R
GONZALES*      FAIR      75  46  34 N6        30.05R
HAMMOND*       NOT AVBL
HOUMA*         SUNNY     75  39  27 NE5       30.04S
PORT FOURCHON* CLEAR     75  45  33 N10       30.07R

$$

LAZ041-044-053-054-242300-
SOUTHWEST LOUISIANA

CITY           SKY/WX    TMP DP  RH WIND       PRES   REMARKS
LAKE CHARLES   SUNNY     77  47  34 NE10      30.09R
LAFAYETTE      SUNNY     76  45  33 N8        30.07S
PATTERSON      SUNNY     73  52  46 N8        30.08S
SALT POINT       N/A     76  50  40 VRB5      30.05R
NEW IBERIA     SUNNY     76  46  34 N12       30.07S
CHENAULT AIRPK NOT AVBL

$$

LAZ027-028-242300-
CENTRAL LOUISIANA

CITY           SKY/WX    TMP DP  RH WIND       PRES   REMARKS
FORT POLK      SUNNY     75  48  37 N5        30.10R
ALEXANDRIA INT SUNNY     75  47  36 N5        30.08F
ALEXANDRIA     SUNNY     73  50  44 N7        30.10S

$$

LAZ001-002-242300-
NORTHWEST LOUISIANA

CITY           SKY/WX    TMP DP  RH WIND       PRES   REMARKS
SHREVEPORT     MOSUNNY   78  53  41 CALM      30.10F
BARKSDALE AFB  SUNNY     78  54  43 VRB3      30.11S
DTN SHREVEPORT SUNNY     76  53  44 VRB3      30.11S

$$

LAZ014-016-242300-
NORTHEAST LOUISIANA

CITY           SKY/WX    TMP DP  RH WIND       PRES   REMARKS
MONROE         SUNNY     74  48  39 N5        30.11F
TALLULAH       SUNNY     73  44  35 VRB5      30.09F

$$




USA.gov is the U.S. government's official web portal to all federal, state and local government web resources and services.